[[{"header":{"parameterUnit":"m.s-1","parameterCategory":1,"la1":30.2991,"la2":30.254,"lo1":-89.0895,"lo2":-89.0444,"dy":0.0017,"dx":0.0017,"nx":28,"ny":28,"refTime":"2024-09-02T21:00:00:Z","depth":0,"parameterNumber":2,"parameterNumberName":"U-component_of_WINDS"},"data":[0,0,0,0,0,0,0,0,0,0,0,0,0,0,0,0,0,0,0,0,0,0,0,0,0,0,0,0,0,0,0,0,0,0,0,0,0,0,0,0,0,0,0,0,0,0,0,0,0,0,0,0,0,0,0,0,0,0,-2.4812,-2.4813,0,-2.4867,-2.4868,-2.4869,-2.4874,-2.4874,-2.4873,-2.4873,-2.4931,-2.4933,-2.4935,0,0,0,0,0,0,0,0,0,0,0,0,0,-2.4714,-2.4715,-2.4812,-2.4813,-2.4814,-2.4867,-2.4868,-2.4869,-2.4875,-2.4874,-2.4873,-2.4872,-2.493,-2.4932,-2.4935,0,0,0,0,0,0,0,0,0,0,0,0,0,-2.4761,-2.4716,-2.4812,-2.4823,-2.4824,-2.4867,-2.4868,-2.4869,-2.4875,-2.4874,-2.4873,-2.4872,-2.4929,-2.4932,-2.4935,-2.4972,0,0,-2.4945,-2.4946,0,0,0,0,0,0,0,0,-2.4759,-2.4765,-2.4821,-2.4822,-2.4824,-2.4863,-2.4855,-2.4903,-2.4875,-2.4856,-2.4873,-2.4872,-2.4909,-2.4914,-2.4926,-2.4974,-2.4977,-2.4945,-2.4947,-2.4948,-2.4949,0,0,0,0,0,0,0,-2.4755,-2.4763,-2.4834,-2.4822,-2.4824,-2.4826,-2.4831,-2.4864,-2.4887,-2.4857,-2.4858,-2.4864,-2.491,-2.4923,-2.4927,-2.4978,-2.4945,-2.4948,-2.495,-2.4951,-2.5059,-2.506,0,0,0,0,0,0,-2.475,-2.476,-2.4832,-2.4836,-2.4789,-2.4828,-2.4835,-2.4851,-2.4886,-2.4891,-2.4865,-2.4864,-2.4918,-2.4924,-2.4929,-2.4974,-2.4948,-2.4951,-2.4953,-2.5058,-2.5059,-2.506,0,0,0,0,0,0,-2.4748,-2.4756,-2.483,-2.4798,-2.4808,-2.4831,-2.485,-2.4853,-2.4866,-2.4892,-2.4896,-2.4874,-2.4918,-2.4925,-2.4961,-2.4976,-2.4953,-2.4955,-2.5056,-2.5058,-2.5059,-2.5064,0,0,0,0,0,0,-2.4745,-2.4755,-2.4769,-2.4798,-2.4809,-2.486,-2.4851,-2.4855,-2.4871,-2.4871,-2.4902,-2.4906,-2.4918,-2.4956,-2.4964,-2.498,-2.4958,-2.5055,-2.5057,-2.5059,-2.5063,-2.5066,-2.5068,0,0,0,0,0,-2.4741,-2.4769,-2.477,-2.4778,-2.4827,-2.4861,-2.4868,-2.488,-2.4873,-2.4887,-2.4903,-2.4905,-2.4973,-2.496,-2.4969,-2.4986,-2.5054,-2.5057,-2.5059,-2.5061,-2.5065,-2.5068,0,0,0,0,0,0,-2.4741,-2.4773,-2.4774,-2.4812,-2.4834,-2.4862,-2.488,-2.4883,-2.4908,-2.4907,-2.4922,-2.4929,-2.4964,-2.4979,-2.4963,-2.5023,-2.5013,-2.5017,-2.5012,-2.5016,-2.5018,-2.5014,-2.496,0,0,0,0,0,-2.4745,-2.477,-2.4797,-2.4827,-2.4838,-2.4857,-2.4873,-2.488,-2.4904,-2.4913,-2.4933,-2.4956,-2.4983,-2.5,-2.5026,-2.5065,-2.5072,-2.5081,-2.5084,-2.5086,-2.5089,-2.5111,-2.5116,-2.5067,-2.5067,-2.5067,0,0,-2.4755,-2.4775,-2.479,-2.4828,-2.4845,-2.4871,-2.4865,-2.4893,-2.4912,-2.4918,-2.4953,-2.4968,-2.4995,-2.5032,-2.505,-2.5045,-2.5104,-2.5089,-2.509,-2.5093,-2.5114,-2.5118,-2.5122,-2.5069,-2.5069,-2.5068,0,0,-2.4784,-2.4802,-2.483,-2.4848,-2.4875,-2.4887,-2.4894,-2.4922,-2.4932,-2.4967,-2.4972,-2.4995,-2.5041,-2.506,-2.5076,-2.5113,-2.5116,-2.5121,-2.5135,-2.5156,-2.516,-2.5164,-2.5177,-2.5182,-2.5124,-2.5124,-2.5124,0,-2.4793,-2.4831,-2.4843,-2.4871,-2.4888,-2.4893,-2.4921,-2.4938,-2.4973,-2.4984,-2.4979,-2.5037,-2.5055,-2.5097,-2.5106,-2.5119,-2.5127,-2.5118,-2.5158,-2.5162,-2.5165,-2.5179,-2.5184,-2.5125,-2.5125,-2.5125,-2.5125,0,-2.484,-2.4867,-2.4886,-2.4918,-2.4937,-2.4965,-2.4982,-2.4999,-2.5005,-2.5019,-2.5054,-2.5077,-2.5108,-2.5118,-2.5125,-2.5161,-2.5158,-2.5155,-2.5146,-2.517,-2.5183,-2.5188,-2.5126,-2.5125,-2.5125,-2.5125,0,0,-2.4872,-2.491,-2.4917,-2.4932,-2.4962,-2.4983,-2.5012,-2.5041,-2.5056,-2.508,-2.5104,-2.5142,-2.514,-2.5158,-2.5166,-2.5185,-2.5213,-2.518,-2.5181,-2.5186,-2.5255,-2.5257,-2.5263,-2.5215,-2.5216,-2.5217,-2.5253,0,-2.4905,-2.4955,-2.4967,-2.5009,-2.5034,-2.504,-2.5065,-2.5086,-2.5099,-2.5123,-2.5138,-2.5165,-2.516,-2.5171,-2.5189,-2.5206,-2.5227,-2.5203,-2.5238,-2.5239,-2.5231,-2.5269,-2.5271,-2.5305,-2.5258,-2.5259,-2.526,0,-2.4951,-2.4975,-2.502,-2.5047,-2.5058,-2.508,-2.5108,-2.513,-2.5155,-2.5163,-2.5183,-2.519,-2.522,-2.5208,-2.525,-2.5233,-2.5248,-2.5259,-2.526,-2.5264,-2.5251,-2.5275,-2.5316,-2.5321,-2.5267,-2.5267,-2.5266,0,-2.497,-2.5014,-2.5046,-2.5059,-2.5091,-2.5106,-2.512,-2.5144,-2.5161,-2.5186,-2.5197,-2.5225,-2.524,-2.5262,-2.5276,-2.5267,-2.5317,-2.5307,-2.5325,-2.5325,-2.5336,-2.5335,-2.538,-2.5345,-2.5345,-2.5345,-2.5345,0,-2.5006,-2.5034,-2.5055,-2.5075,-2.5106,-2.5119,-2.515,-2.5164,-2.5185,-2.5209,-2.5216,-2.5237,-2.5255,-2.5279,-2.5291,-2.5324,-2.5331,-2.5338,-2.5341,-2.5338,-2.5337,-2.5348,-2.5346,-2.5346,-2.5346,-2.5346,-2.5346,0,-2.5033,-2.5048,-2.5084,-2.5111,-2.5119,-2.514,-2.5164,-2.5184,-2.5197,-2.5227,-2.5235,-2.5256,-2.5285,-2.5301,-2.5338,-2.5345,-2.5382,-2.5384,-2.5374,-2.5375,-2.5393,-2.5391,-2.5447,-2.5455,-2.5414,-2.5414,-2.5415,0,-2.5055,-2.5076,-2.5106,-2.5121,-2.5136,-2.5161,-2.5178,-2.5192,-2.521,-2.524,-2.5256,-2.5286,-2.531,-2.5356,-2.5375,-2.5403,-2.5406,-2.5424,-2.541,-2.5406,-2.5406,-2.5405,-2.5407,-2.5426,-2.5426,-2.5427,-2.5427,0,-2.5093,-2.5099,-2.5124,-2.5151,-2.5171,-2.5193,-2.5215,-2.5228,-2.5246,-2.5265,-2.5295,-2.5314,-2.5351,-2.538,-2.541,-2.5425,-2.5429,-2.5431,-2.5437,-2.5434,-2.5427,-2.5431,-2.538,-2.543,-2.5429,-2.5429,-2.5429,-2.5429,-2.5118,-2.5137,-2.5161,-2.5188,-2.5206,-2.5226,-2.5246,-2.5262,-2.5286,-2.5317,-2.5324,-2.5355,-2.538,-2.542,-2.5436,-2.5461,-2.5458,-2.5466,-2.5468,-2.547,-2.5471,-2.5423,-2.5467,-2.5466,-2.5466,-2.5466,-2.5466,0,-2.5157,-2.5172,-2.5197,-2.5227,-2.5248,-2.5249,-2.5274,-2.5292,-2.5319,-2.5341,-2.5364,-2.5399,-2.5427,-2.5448,-2.5477,-2.5493,-2.5496,-2.55,-2.5499,-2.5503,-2.5472,-2.5464,-2.5498,-2.5498,-2.5498,-2.5498,-2.5498,-2.5498,-2.5179,-2.5212,-2.5221,-2.5262,-2.5278,-2.5308,-2.5322,-2.5341,-2.5358,-2.5396,-2.5419,-2.5432,-2.5454,-2.5485,-2.5511,-2.5517,-2.5528,-2.5532,-2.5538,-2.5509,-2.5505,-2.5502,-2.5495,-2.5534,-2.5534,-2.5567,-2.5567,-2.5567]},{"header":{"parameterUnit":"m.s-1","parameterCategory":1,"la1":30.2991,"la2":30.254,"lo1":-89.0895,"lo2":-89.0444,"dy":0.0017,"dx":0.0017,"nx":28,"ny":28,"refTime":"2024-09-02T21:00:00:Z","depth":0,"parameterNumber":3,"parameterNumberName":"V-component_of_WINDS"},"data":[0,0,0,0,0,0,0,0,0,0,0,0,0,0,0,0,0,0,0,0,0,0,0,0,0,0,0,0,0,0,0,0,0,0,0,0,0,0,0,0,0,0,0,0,0,0,0,0,0,0,0,0,0,0,0,0,0,0,-2.5018,-2.5017,0,-2.4916,-2.4915,-2.4913,-2.4819,-2.4818,-2.4817,-2.4816,-2.4706,-2.4704,-2.4702,0,0,0,0,0,0,0,0,0,0,0,0,0,-2.5127,-2.5125,-2.5018,-2.5016,-2.5015,-2.4916,-2.4915,-2.4913,-2.4819,-2.4818,-2.4816,-2.4815,-2.4707,-2.4704,-2.4702,0,0,0,0,0,0,0,0,0,0,0,0,0,-2.5058,-2.5125,-2.5018,-2.4956,-2.495,-2.4916,-2.4915,-2.4913,-2.4819,-2.4818,-2.4816,-2.4814,-2.4707,-2.4705,-2.4702,-2.4719,0,0,-2.4693,-2.4692,0,0,0,0,0,0,0,0,-2.5062,-2.5054,-2.4967,-2.4961,-2.4953,-2.4878,-2.4913,-2.4848,-2.482,-2.4869,-2.4815,-2.4813,-2.4764,-2.4757,-2.4741,-2.4714,-2.4709,-2.4693,-2.4692,-2.469,-2.469,0,0,0,0,0,0,0,-2.5066,-2.5057,-2.4977,-2.4966,-2.4957,-2.4933,-2.4921,-2.49,-2.4827,-2.4864,-2.4857,-2.4847,-2.476,-2.4744,-2.4738,-2.4708,-2.4693,-2.4691,-2.4689,-2.4688,-2.469,-2.4692,0,0,0,0,0,0,-2.5081,-2.5062,-2.498,-2.4974,-2.5004,-2.4932,-2.4919,-2.4904,-2.4827,-2.4814,-2.4848,-2.4843,-2.475,-2.4741,-2.4734,-2.475,-2.469,-2.4688,-2.4686,-2.4689,-2.4691,-2.4693,0,0,0,0,0,0,-2.5084,-2.5075,-2.4985,-2.5016,-2.5003,-2.4932,-2.4916,-2.4903,-2.4887,-2.4815,-2.4801,-2.4846,-2.4748,-2.4738,-2.4724,-2.4745,-2.4687,-2.4684,-2.4687,-2.4689,-2.4692,-2.4782,0,0,0,0,0,0,-2.5088,-2.5077,-2.5083,-2.5017,-2.5002,-2.4978,-2.4917,-2.4902,-2.4883,-2.4875,-2.4809,-2.4796,-2.4746,-2.4729,-2.4722,-2.474,-2.4682,-2.4685,-2.4688,-2.4691,-2.4777,-2.4787,-2.4796,0,0,0,0,0,-2.5092,-2.5111,-2.5084,-2.5075,-2.5009,-2.498,-2.497,-2.4914,-2.4885,-2.4891,-2.4845,-2.4798,-2.4744,-2.4728,-2.4719,-2.4737,-2.4683,-2.4687,-2.4691,-2.4772,-2.4785,-2.4796,0,0,0,0,0,0,-2.518,-2.5102,-2.507,-2.5069,-2.5032,-2.4964,-2.4969,-2.4929,-2.4897,-2.4891,-2.482,-2.4806,-2.48,-2.4767,-2.4751,-2.475,-2.4707,-2.4709,-2.4772,-2.4784,-2.4793,-2.4801,-2.468,0,0,0,0,0,-2.5199,-2.5184,-2.5115,-2.5121,-2.5104,-2.5041,-2.5025,-2.4985,-2.4943,-2.4926,-2.4879,-2.4838,-2.4812,-2.4796,-2.4767,-2.4771,-2.4756,-2.4779,-2.4789,-2.4797,-2.48,-2.48,-2.481,-2.4705,-2.4705,-2.4705,0,0,-2.5239,-2.5194,-2.5188,-2.5138,-2.5104,-2.5088,-2.5027,-2.5013,-2.5,-2.4923,-2.4908,-2.4872,-2.4822,-2.4818,-2.4814,-2.479,-2.4826,-2.4802,-2.481,-2.4807,-2.4805,-2.4815,-2.4824,-2.4708,-2.4708,-2.4707,0,0,-2.5303,-2.5268,-2.527,-2.5238,-2.5188,-2.5146,-2.5147,-2.5084,-2.5059,-2.5043,-2.4985,-2.4968,-2.4924,-2.4891,-2.4868,-2.4922,-2.4878,-2.4915,-2.4966,-2.4967,-2.4975,-2.4982,-2.5002,-2.5009,-2.4918,-2.4918,-2.4918,0,-2.5358,-2.5334,-2.5275,-2.5265,-2.5244,-2.5176,-2.5176,-2.5147,-2.5091,-2.5078,-2.5052,-2.4997,-2.4958,-2.4946,-2.4959,-2.4943,-2.4941,-2.4922,-2.4979,-2.4985,-2.4991,-2.5009,-2.5016,-2.4923,-2.4922,-2.4922,-2.4921,0,-2.5404,-2.5388,-2.5395,-2.5345,-2.5325,-2.532,-2.5259,-2.5246,-2.5208,-2.5168,-2.5153,-2.5104,-2.5066,-2.5059,-2.5021,-2.5042,-2.5029,-2.4992,-2.4947,-2.5007,-2.5022,-2.5029,-2.493,-2.4928,-2.4926,-2.4925,0,0,-2.552,-2.5439,-2.5442,-2.5419,-2.536,-2.5346,-2.5338,-2.5302,-2.5292,-2.5256,-2.5247,-2.5212,-2.5179,-2.5153,-2.511,-2.5111,-2.5158,-2.5074,-2.5072,-2.5092,-2.5178,-2.5207,-2.5216,-2.5129,-2.513,-2.5131,-2.5183,0,-2.5575,-2.5559,-2.5506,-2.5505,-2.549,-2.5425,-2.5418,-2.5381,-2.5344,-2.5324,-2.5281,-2.5258,-2.5215,-2.52,-2.5198,-2.5153,-2.5174,-2.5148,-2.5119,-2.5119,-2.5134,-2.5224,-2.5253,-2.5305,-2.5188,-2.5189,-2.519,0,-2.5637,-2.5607,-2.5606,-2.5549,-2.554,-2.5535,-2.5499,-2.5481,-2.5437,-2.541,-2.5383,-2.5336,-2.5323,-2.5282,-2.5263,-2.5246,-2.5231,-2.5207,-2.5207,-2.5203,-2.5158,-2.5222,-2.532,-2.5328,-2.5199,-2.5198,-2.5198,0,-2.5722,-2.5682,-2.5676,-2.5658,-2.5591,-2.5589,-2.5561,-2.5516,-2.5498,-2.5465,-2.5453,-2.5419,-2.54,-2.5374,-2.5319,-2.5294,-2.5306,-2.526,-2.5282,-2.5284,-2.5288,-2.5288,-2.5385,-2.5278,-2.5278,-2.5278,-2.5277,0,-2.5789,-2.5791,-2.5714,-2.571,-2.571,-2.5649,-2.565,-2.5615,-2.5576,-2.5564,-2.5505,-2.5494,-2.5422,-2.5402,-2.5359,-2.535,-2.5341,-2.5319,-2.5307,-2.5324,-2.5327,-2.5313,-2.5308,-2.528,-2.5279,-2.5279,-2.5278,0,-2.5885,-2.5833,-2.5823,-2.5761,-2.5746,-2.5749,-2.5695,-2.5689,-2.5649,-2.5634,-2.5627,-2.5563,-2.5538,-2.548,-2.5438,-2.5409,-2.5411,-2.539,-2.5427,-2.542,-2.5446,-2.5444,-2.5537,-2.5546,-2.5434,-2.5435,-2.5436,0,-2.5931,-2.5931,-2.5871,-2.586,-2.5835,-2.5817,-2.5799,-2.5739,-2.5723,-2.5674,-2.5673,-2.5644,-2.5617,-2.5579,-2.5528,-2.5496,-2.5473,-2.5508,-2.5468,-2.5486,-2.5474,-2.5475,-2.5475,-2.5517,-2.5519,-2.552,-2.5521,0,-2.6019,-2.5994,-2.5972,-2.5941,-2.5923,-2.5895,-2.5864,-2.5857,-2.5789,-2.5774,-2.5749,-2.5728,-2.5687,-2.5658,-2.5619,-2.5588,-2.5543,-2.5534,-2.5538,-2.5555,-2.5577,-2.5566,-2.5452,-2.5532,-2.5531,-2.553,-2.553,-2.5529,-2.6091,-2.6089,-2.6047,-2.6024,-2.5995,-2.5968,-2.596,-2.592,-2.5898,-2.5861,-2.5826,-2.5805,-2.5761,-2.5704,-2.5676,-2.5657,-2.5635,-2.564,-2.5641,-2.5643,-2.5651,-2.5581,-2.5649,-2.5649,-2.5649,-2.5648,-2.5648,0,-2.6176,-2.6147,-2.6127,-2.6087,-2.6069,-2.6031,-2.5995,-2.5982,-2.5965,-2.5929,-2.5904,-2.5875,-2.5847,-2.5795,-2.5762,-2.5757,-2.5736,-2.5751,-2.5751,-2.5744,-2.5673,-2.5673,-2.5769,-2.5769,-2.5769,-2.5769,-2.5769,-2.5769,-2.6219,-2.6213,-2.6184,-2.6163,-2.6132,-2.6112,-2.6095,-2.607,-2.6041,-2.6012,-2.599,-2.5957,-2.5914,-2.5878,-2.585,-2.5836,-2.5826,-2.5848,-2.5827,-2.5761,-2.5749,-2.5738,-2.5739,-2.5846,-2.5846,-2.59,-2.59,-2.5901]}]]